Weather History for Creston, IA

Change the Weather History Date:

Wednesday, May 15, 2013

  Actual Average Record
Temperature  
Mean Temperature 70 °F -  
Max Temperature 80 °F 72 °F 89 °F (2001)
Min Temperature 60 °F 49 °F 30 °F (1959)
Cooling Degree Days 5    
Growing Degree Days 20 (Base 50)    
Moisture  
Dew Point 46 °F    
Average Humidity 42    
Maximum Humidity 68    
Minimum Humidity 24    
Precipitation  
Precipitation 0.00 in - - ()
Sea Level Pressure  
Sea Level Pressure 29.87 in    
Wind  
Wind Speed 12 mph (ENE)    
Max Wind Speed 18 mph    
Max Gust Speed 24 mph    
Visibility 10 miles    
Events      
Averages and records for this station are not official NWS values.
T = Trace of Precipitation, MM = Missing Value Source: NWS Daily Summary

Daily Weather History Graph

Daily Weather History Graph

Search for Another Location

Airport:

Trip Planner

Search our weather history database for the weather conditions in past years. The results will help you decide how hot, cold, wet, or windy it might be!

Date:

Astronomy

May. 15, 2013 Rise Set
Actual Time 5:59 AM CDT 8:28 PM CDT
Civil Twilight 5:28 AM CDT 9:00 PM CDT
Nautical Twilight 4:49 AM CDT 9:39 PM CDT
Astronomical Twilight 4:05 AM CDT 10:23 PM CDT
Moon 10:36 AM CDT (5/15) 12:15 AM CDT (5/15)
Length of Visible Light 15h 32m
Length of Day
14h 29m
Waxing Crescent, 27% of the Moon is Illuminated
May 15
Waxing Crescent
May 17
First Quarter
May 24
Full
May 31
Last Quarter
Jun 8
New

Hourly Weather History & Observations

Time (CDT) Temp. Dew Point Humidity Pressure Visibility Wind Dir Wind Speed Gust Speed Precip Events Conditions
12:15 AM 75.2 °F 50.0 °F 41% 29.79 in 10.0 mi WSW 11.5 mph 18.4 mph N/A   Clear
12:35 AM 73.4 °F 50.0 °F 44% 29.80 in 10.0 mi SW 11.5 mph 17.3 mph N/A   Clear
12:55 AM 71.6 °F 50.0 °F 46% 29.79 in 10.0 mi SW 11.5 mph - N/A   Clear
1:35 AM 71.6 °F 50.0 °F 46% 29.80 in 10.0 mi SW 12.7 mph - N/A   Clear
1:55 AM 71.6 °F 50.0 °F 46% 29.80 in 10.0 mi SW 11.5 mph - N/A   Clear
2:15 AM 69.8 °F 50.0 °F 49% 29.79 in 10.0 mi SW 10.4 mph - N/A   Clear
2:35 AM 71.6 °F 50.0 °F 46% 29.79 in 10.0 mi SW 11.5 mph - N/A   Clear
2:55 AM 71.6 °F 51.8 °F 50% 29.80 in 10.0 mi WSW 11.5 mph - N/A   Clear
3:15 AM 69.8 °F 51.8 °F 53% 29.81 in 10.0 mi West 13.8 mph - N/A   Clear
3:35 AM 69.8 °F 51.8 °F 53% 29.81 in 10.0 mi West 11.5 mph 19.6 mph N/A   Clear
3:55 AM 68.0 °F 51.8 °F 56% 29.82 in 10.0 mi West 10.4 mph - N/A   Clear
4:15 AM 64.4 °F 51.8 °F 64% 29.82 in 10.0 mi NW 9.2 mph - N/A   Clear
4:35 AM 66.2 °F 42.8 °F 43% 29.83 in 10.0 mi North 10.4 mph 16.1 mph N/A   Clear
4:55 AM 64.4 °F 44.6 °F 49% 29.83 in 10.0 mi North 10.4 mph - N/A   Clear
5:15 AM 64.4 °F 48.2 °F 56% 29.83 in 10.0 mi NE 12.7 mph - N/A   Clear
5:35 AM 62.6 °F 50.0 °F 63% 29.84 in 10.0 mi NE 9.2 mph - N/A   Clear
5:55 AM 62.6 °F 50.0 °F 63% 29.85 in 10.0 mi NE 9.2 mph - N/A   Clear
6:15 AM 60.8 °F 50.0 °F 68% 29.86 in 10.0 mi NNE 10.4 mph - N/A   Clear
6:35 AM 62.6 °F 48.2 °F 59% 29.86 in 10.0 mi NNE 10.4 mph - N/A   Clear
6:55 AM 62.6 °F 44.6 °F 52% 29.88 in 10.0 mi North 10.4 mph - N/A   Clear
7:15 AM 62.6 °F 44.6 °F 52% 29.89 in 10.0 mi North 16.1 mph - N/A   Clear
7:35 AM 62.6 °F 46.4 °F 55% 29.89 in 10.0 mi NNE 17.3 mph - N/A   Clear
7:55 AM 64.4 °F 46.4 °F 52% 29.89 in 10.0 mi NNE 18.4 mph - N/A   Clear
8:15 AM 66.2 °F 46.4 °F 49% 29.90 in 10.0 mi NNE 16.1 mph 24.2 mph N/A   Clear
8:35 AM 66.2 °F 46.4 °F 49% 29.89 in 10.0 mi NE 16.1 mph - N/A   Clear
8:55 AM 68.0 °F 46.4 °F 46% 29.90 in 10.0 mi ENE 15.0 mph - N/A   Clear
9:15 AM 68.0 °F 48.2 °F 49% 29.91 in 10.0 mi ENE 11.5 mph - N/A   Clear
9:35 AM 69.8 °F 48.2 °F 46% 29.91 in 10.0 mi NE 10.4 mph - N/A   Clear
9:55 AM 69.8 °F 46.4 °F 43% 29.92 in 10.0 mi NE 15.0 mph - N/A   Clear
10:15 AM 69.8 °F 46.4 °F 43% 29.92 in 10.0 mi NNE 12.7 mph 18.4 mph N/A   Clear
10:35 AM 69.8 °F 46.4 °F 43% 29.92 in 10.0 mi NNE 13.8 mph 20.7 mph N/A   Clear
10:55 AM 69.8 °F 48.2 °F 46% 29.93 in 10.0 mi NNE 13.8 mph - N/A   Clear
11:15 AM 69.8 °F 46.4 °F 43% 29.93 in 10.0 mi NE 16.1 mph - N/A   Clear
11:35 AM 71.6 °F 46.4 °F 41% 29.93 in 10.0 mi NE 16.1 mph - N/A   Clear
11:55 AM 73.4 °F 46.4 °F 38% 29.93 in 10.0 mi NE 13.8 mph 20.7 mph N/A   Clear
12:15 PM 73.4 °F 44.6 °F 36% 29.92 in 10.0 mi NE 16.1 mph - N/A   Clear
12:35 PM 73.4 °F 44.6 °F 36% 29.92 in 10.0 mi ENE 17.3 mph 24.2 mph N/A   Clear
12:55 PM 73.4 °F 42.8 °F 33% 29.92 in 10.0 mi ENE 17.3 mph - N/A   Clear
1:15 PM 73.4 °F 44.6 °F 36% 29.92 in 10.0 mi East 15.0 mph - N/A   Clear
1:35 PM 75.2 °F 46.4 °F 36% 29.92 in 10.0 mi East 13.8 mph 24.2 mph N/A   Clear
1:55 PM 77.0 °F 44.6 °F 32% 29.91 in 10.0 mi East 13.8 mph 19.6 mph N/A   Clear
2:15 PM 77.0 °F 42.8 °F 29% 29.90 in 10.0 mi ENE 15.0 mph 20.7 mph N/A   Clear
2:35 PM 77.0 °F 44.6 °F 32% 29.89 in 10.0 mi East 11.5 mph 19.6 mph N/A   Clear
2:55 PM 77.0 °F 44.6 °F 32% 29.88 in 10.0 mi East 16.1 mph 21.9 mph N/A   Clear
3:15 PM 78.8 °F 42.8 °F 28% 29.87 in 10.0 mi ENE 16.1 mph - N/A   Clear
3:35 PM 78.8 °F 41.0 °F 26% 29.87 in 10.0 mi East 17.3 mph 24.2 mph N/A   Clear
3:55 PM 80.6 °F 41.0 °F 24% 29.87 in 10.0 mi ESE 13.8 mph 20.7 mph N/A   Clear
4:15 PM 80.6 °F 44.6 °F 28% 29.86 in 10.0 mi SE 13.8 mph - N/A   Clear
4:35 PM 80.6 °F 42.8 °F 26% 29.86 in 10.0 mi ESE 15.0 mph - N/A   Clear
4:55 PM 78.8 °F 42.8 °F 28% 29.86 in 10.0 mi SE 16.1 mph - N/A   Clear
5:15 PM 80.6 °F 42.8 °F 26% 29.86 in 10.0 mi East 12.7 mph 19.6 mph N/A   Clear
5:35 PM 78.8 °F 44.6 °F 30% 29.86 in 10.0 mi ESE 9.2 mph - N/A   Clear
5:55 PM 78.8 °F 46.4 °F 32% 29.86 in 10.0 mi East 10.4 mph - N/A   Clear
6:15 PM 78.8 °F 44.6 °F 30% 29.86 in 10.0 mi SE 12.7 mph - N/A   Clear
6:35 PM 78.8 °F 42.8 °F 28% 29.86 in 10.0 mi East 9.2 mph - N/A   Clear
6:55 PM 78.8 °F 46.4 °F 32% 29.85 in 10.0 mi East 10.4 mph - N/A   Clear
7:15 PM 77.0 °F 44.6 °F 32% 29.85 in 10.0 mi ENE 10.4 mph - N/A   Clear
7:35 PM 77.0 °F 46.4 °F 34% 29.85 in 8.0 mi ENE 6.9 mph - N/A   Clear
7:55 PM 75.2 °F 44.6 °F 34% 29.85 in 10.0 mi ENE 10.4 mph - N/A   Clear
8:15 PM 73.4 °F 44.6 °F 36% 29.84 in 10.0 mi ENE 10.4 mph - N/A   Clear
8:35 PM 71.6 °F 44.6 °F 38% 29.84 in 10.0 mi ENE 10.4 mph - N/A   Clear
8:55 PM 69.8 °F 44.6 °F 40% 29.84 in 10.0 mi ENE 9.2 mph - N/A   Clear
9:15 PM 68.0 °F 44.6 °F 43% 29.85 in 10.0 mi ENE 8.1 mph - N/A   Clear
9:35 PM 68.0 °F 44.6 °F 43% 29.85 in 9.0 mi ENE 8.1 mph - N/A   Clear
9:55 PM 68.0 °F 44.6 °F 43% 29.86 in 10.0 mi East 9.2 mph - N/A   Clear
10:15 PM 66.2 °F 44.6 °F 46% 29.86 in 10.0 mi East 8.1 mph - N/A   Mostly Cloudy
10:35 PM 66.2 °F 46.4 °F 49% 29.87 in 10.0 mi East 4.6 mph - N/A   Mostly Cloudy
10:55 PM 66.2 °F 46.4 °F 49% 29.87 in 10.0 mi East 6.9 mph - N/A   Mostly Cloudy
11:15 PM 66.2 °F 46.4 °F 49% 29.87 in 9.0 mi Calm Calm - N/A   Overcast
11:35 PM 68.0 °F 46.4 °F 46% 29.88 in 10.0 mi Calm Calm - N/A   Overcast
11:55 PM 68.0 °F 46.4 °F 46% 29.88 in 10.0 mi East 4.6 mph - N/A   Overcast